Total_Precipitation_Accumulation
2.47 2.68 2.62 2.51 2.40 2.47 2.40 2.27 2.08 2.11 2.05 1.87 1.73 1.77 1.85 1.91 2.00 2.16 2.23 2.16 2.15 2.40 2.88 3.20 3.26 3.12 3.06 3.04 2.97 2.84 2.70 2.61 2.57 2.43 2.29 2.14 2.02 1.92 1.86 1.88 1.90 1.78 1.75
3.05 3.19 3.13 2.94 2.69 2.68 2.65 2.54 2.46 2.56 2.50 2.44 2.25 2.13 2.04 2.13 2.13 2.20 2.40 2.52 2.36 2.34 2.77 3.31 3.62 3.62 3.50 3.44 3.22 2.97 2.87 2.80 2.77 2.66 2.53 2.32 2.13 2.11 2.05 2.00 2.00 1.90 1.81
3.60 3.64 3.62 3.31 3.04 3.00 3.16 3.13 3.01 2.99 2.74 2.66 2.55 2.45 2.31 2.20 2.20 2.29 2.50 2.82 2.75 2.79 2.94 3.04 3.21 3.36 3.52 3.70 3.73 3.50 3.24 3.05 2.96 2.86 2.76 2.64 2.44 2.26 2.18 2.14 2.15 2.09 1.95
3.66 3.75 3.74 3.58 3.43 3.33 3.58 3.73 3.63 3.52 3.35 3.28 3.10 2.81 2.53 2.45 2.44 2.58 2.70 2.89 3.15 3.13 3.21 3.08 2.91 3.03 3.35 3.60 3.77 3.83 3.64 3.34 3.14 3.08 3.03 2.92 2.72 2.56 2.39 2.29 2.28 2.22 2.09
4.01 4.05 3.95 3.94 3.96 4.01 3.98 3.75 3.86 3.71 3.73 3.63 3.19 2.95 2.60 2.50 2.62 2.62 2.74 2.80 3.01 3.02 3.03 2.92 2.90 2.90 3.14 3.52 3.65 3.87 3.89 3.75 3.54 3.37 3.28 3.20 3.03 2.81 2.61 2.48 2.36 2.28 2.17
4.43 4.65 4.60 4.52 4.50 4.45 4.25 4.17 4.17 3.95 3.78 3.63 3.16 2.91 2.64 2.47 2.46 2.55 2.55 2.56 2.61 2.59 2.55 2.64 2.95 2.84 2.95 3.14 3.22 3.44 3.73 3.90 3.76 3.55 3.43 3.39 3.22 2.92 2.62 2.50 2.45 2.37 2.29
5.19 5.24 5.04 4.85 4.71 4.69 4.60 4.55 4.36 4.12 3.85 3.74 3.64 3.25 2.70 2.39 2.37 2.33 2.33 2.37 2.41 2.45 2.46 2.51 2.55 2.55 2.57 2.72 2.74 2.92 3.22 3.59 3.71 3.68 3.66 3.54 3.39 3.19 2.88 2.64 2.56 2.52 2.44
5.37 5.27 5.33 5.26 5.06 4.90 4.71 4.51 4.40 4.20 3.86 3.78 3.76 3.62 3.10 2.66 2.25 1.97 1.99 2.02 2.12 2.32 2.24 2.18 2.27 2.35 2.36 2.47 2.47 2.68 2.91 3.15 3.43 3.57 3.50 3.37 3.26 3.23 3.19 3.03 2.86 2.74 2.65
5.54 5.34 5.25 5.05 4.90 4.77 4.61 4.39 4.19 4.07 3.86 3.73 3.69 3.79 3.45 2.97 2.44 2.09 1.86 1.80 1.84 1.99 1.98 1.99 2.00 2.08 2.19 2.32 2.31 2.45 2.60 2.65 2.96 3.25 3.37 3.28 3.17 3.08 3.05 3.05 3.01 2.95 2.89
5.14 4.90 4.78 4.70 4.53 4.19 3.95 3.78 3.70 3.56 3.44 3.28 3.33 3.31 3.16 2.95 2.89 2.66 2.34 2.14 2.07 2.04 2.03 1.95 1.92 2.00 2.03 2.16 2.32 2.33 2.30 2.32 2.56 2.83 3.07 3.17 3.10 3.13 3.13 3.11 3.08 3.06 3.06
4.50 4.24 4.12 3.98 3.75 3.38 3.02 2.89 2.97 3.05 3.06 2.98 2.98 3.04 3.05 2.88 2.79 2.74 2.62 2.45 2.35 2.17 2.08 2.12 2.11 2.08 2.03 2.01 2.08 2.19 2.15 2.00 2.12 2.29 2.60 2.87 2.99 3.12 3.18 3.11 3.11 3.09 3.11
3.92 3.56 3.26 3.01 2.78 2.61 2.41 2.37 2.41 2.50 2.69 2.80 2.93 2.96 2.96 2.86 2.76 2.75 2.64 2.58 2.54 2.36 2.16 2.05 2.06 2.04 1.99 1.98 1.93 2.08 1.88 1.77 1.76 1.84 2.03 2.29 2.53 2.70 2.72 2.85 3.01 3.10 3.19
3.15 2.85 2.57 2.47 2.36 2.23 2.15 2.14 2.14 2.10 2.21 2.42 2.55 2.65 2.72 2.71 2.70 2.74 2.83 2.79 2.61 2.43 2.30 2.13 1.99 1.93 1.91 1.94 1.92 1.96 1.77 1.66 1.58 1.56 1.58 1.68 1.83 2.04 2.20 2.40 2.58 2.75 2.88
2.42 2.16 1.97 1.85 1.84 1.88 1.81 1.86 1.88 1.90 1.91 2.00 2.10 2.31 2.43 2.45 2.47 2.47 2.50 2.60 2.65 2.49 2.25 2.10 2.01 1.87 1.77 1.69 1.70 1.68 1.48 1.49 1.36 1.32 1.34 1.39 1.45 1.53 1.66 1.76 1.87 1.98 2.06
1.77 1.64 1.56 1.53 1.50 1.54 1.60 1.61 1.58 1.61 1.71 1.74 1.77 1.91 1.99 2.02 2.07 2.14 2.22 2.31 2.50 2.52 2.29 2.01 1.90 1.77 1.58 1.44 1.50 1.32 1.27 1.30 1.18 1.11 1.07 1.10 1.14 1.22 1.29 1.35 1.45 1.50 1.52
1.46 1.45 1.39 1.32 1.25 1.26 1.29 1.33 1.36 1.39 1.45 1.53 1.57 1.59 1.64 1.64 1.72 1.82 1.97 2.09 2.17 2.26 2.20 1.87 1.63 1.50 1.42 1.25 1.31 1.16 1.18 1.21 1.05 1.03 0.99 1.00 1.04 1.11 1.15 1.19 1.22 1.30 1.32
1.22 1.18 1.09 1.02 0.99 1.03 1.09 1.18 1.22 1.27 1.32 1.37 1.44 1.46 1.48 1.46 1.52 1.57 1.60 1.68 1.84 1.96 1.97 1.72 1.53 1.46 1.40 1.29 1.25 1.22 1.18 1.12 1.01 1.03 0.97 0.98 1.00 1.01 1.02 1.04 1.04 1.09 1.19
1.10 1.03 0.92 0.86 0.84 0.87 0.93 0.99 1.03 1.07 1.17 1.19 1.21 1.25 1.25 1.27 1.30 1.32 1.37 1.41 1.50 1.64 1.73 1.72 1.60 1.54 1.45 1.33 1.30 1.31 1.10 0.93 0.91 0.94 0.87 0.83 0.85 0.86 0.88 0.89 0.89 0.87 0.90
1.08 0.99 0.88 0.83 0.81 0.80 0.81 0.86 0.90 0.89 0.92 0.99 1.04 1.11 1.13 1.16 1.14 1.07 1.12 1.22 1.28 1.36 1.55 1.58 1.51 1.45 1.35 1.24 1.33 1.25 1.15 1.20 0.91 0.85 0.78 0.73 0.73 0.71 0.72 0.74 0.76 0.75 0.72
0.97 0.91 0.85 0.79 0.77 0.74 0.75 0.77 0.75 0.79 0.83 0.89 0.92 0.95 0.97 1.00 1.02 1.04 1.06 1.19 1.26 1.38 1.47 1.49 1.46 1.42 1.34 1.25 1.35 1.36 1.33 1.28 1.06 0.79 0.76 0.67 0.70 0.68 0.67 0.68 0.67 0.66 0.63
0.97 0.91 0.84 0.78 0.68 0.63 0.62 0.63 0.63 0.67 0.75 0.77 0.81 0.80 0.79 0.84 0.93 0.93 0.92 1.03 1.16 1.33 1.36 1.37 1.38 1.41 1.35 1.37 1.36 1.31 1.31 1.31 1.19 1.00 1.00 0.84 0.81 0.86 0.86 0.80 0.73 0.69 0.62
0.90 0.86 0.79 0.72 0.65 0.55 0.58 0.58 0.55 0.61 0.71 0.75 0.74 0.72 0.68 0.68 0.74 0.81 0.82 0.89 1.02 1.14 1.23 1.31 1.34 1.36 1.37 1.44 1.46 1.43 1.41 1.42 1.40 1.16 1.14 1.06 0.96 1.05 0.99 0.90 0.81 0.69 0.61
0.90 0.83 0.76 0.73 0.72 0.65 0.51 0.44 0.46 0.55 0.70 0.70 0.69 0.73 0.67 0.63 0.71 0.75 0.78 0.77 0.82 0.84 0.96 1.17 1.32 1.38 1.47 1.60 1.67 1.61 1.53 1.50 1.51 1.30 1.31 1.26 1.13 1.19 0.97 0.84 0.87 0.75 0.65
0.84 0.82 0.80 0.82 0.83 0.68 0.50 0.37 0.41 0.56 0.65 0.59 0.59 0.68 0.74 0.77 0.72 0.71 0.73 0.78 0.81 0.82 0.85 0.92 1.16 1.25 1.26 1.42 1.60 1.64 1.58 1.51 1.50 1.47 1.53 1.49 1.18 1.12 0.99 1.17 1.15 0.96 0.79
0.78 0.77 0.78 0.85 0.88 0.73 0.53 0.41 0.44 0.56 0.63 0.61 0.60 0.59 0.60 0.67 0.66 0.70 0.78 0.93 0.97 0.98 0.79 0.84 0.96 1.03 1.08 1.21 1.33 1.46 1.63 1.71 1.68 1.57 1.54 1.54 1.35 1.20 1.20 1.42 1.36 1.27 1.03
0.72 0.67 0.72 0.81 0.81 0.73 0.54 0.42 0.42 0.46 0.56 0.66 0.72 0.71 0.66 0.61 0.58 0.65 0.80 0.96 1.04 1.05 1.06 1.19 1.31 1.31 1.29 1.33 1.27 1.41 1.67 1.79 1.75 1.71 1.56 1.56 1.57 1.47 1.53 1.57 1.55 1.44 1.34